Location: ???? ?????
(37.9132°N, 22.9869°E)
Time: 10:46:18
(UTC+00:00)

ISS - Visible Passes

Search period start: 10 October 2024 00:00
Search period end: 20 October 2024 00:00
Orbit: 412 x 424 km, 51.6° (Epoch: 10 October)

Date Brightness Start Highest point End Pass type
(mag) Time Alt. Az. Time Alt. Az. Time Alt. Az.
15 Oct -0.8 03:34:41 10° SSE 03:36:46 16° SE 03:38:52 10° E visible
17 Oct -2.9 03:33:25 10° SSW 03:36:37 49° SE 03:39:52 10° ENE visible
18 Oct -2.0 02:47:45 25° SSE 02:48:21 26° SE 02:51:12 10° ENE visible
19 Oct -0.2 02:01:59 10° E 02:01:59 10° E 02:02:00 10° E visible
19 Oct -3.5 03:34:56 26° W 03:36:29 51° NW 03:39:45 10° NE visible
